Havre, MT

5:57 AM MST on January 18, 2018 (GMT -0700)
Havre City-County

Weather History for KHVR - April, 2013

Change the Weather History Date:

Friday, April 19, 2013

  Actual Average Record
Temperature  
Mean Temperature 39 °F 46 °F  
Max Temperature 49 °F 60 °F 89 °F (1910)
Min Temperature 28 °F 32 °F 8 °F (1951)
Degree Days  
Heating Degree Days 26 19  
Month to date heating degree days 515 424  
Since 1 July heating degree days 7378 7542  
Cooling Degree Days 0 0  
Month to date cooling degree days 0 0  
Year to date cooling degree days 0 0  
Moisture  
Dew Point 32 °F    
Average Humidity 75    
Maximum Humidity 92    
Minimum Humidity 58    
Precipitation  
Precipitation 0.01 in 0.03 in 0.98 in (2007)
Month to date precipitation 0.63 0.46  
Year to date precipitation 2.55 1.61  
Snow  
Snow 0.00 in 0.00 in 2.80 in (1893)
Month to date snowfall 3.5 2.3  
Since 1 July snowfall 50.5 36.5  
Snow Depth 0.00 in    
Sea Level Pressure  
Sea Level Pressure 29.90 in    
Wind  
Wind Speed 8 mph (ENE)    
Max Wind Speed 18 mph    
Max Gust Speed 22 mph    
Visibility 10 miles    
Events Rain    
T = Trace of Precipitation, MM = Missing Value Source: NWS Daily Summary

Daily Weather History Graph

Daily Weather History Graph

Search for Another Location

Airport or City:

Trip Planner

Search our weather history database for the weather conditions in past years. The results will help you decide how hot, cold, wet, or windy it might be!

Date:

Astronomy

Apr. 19, 2013 Rise Set
Actual Time 6:20 AM MDT 8:16 PM MDT
Civil Twilight 5:46 AM MDT 8:50 PM MDT
Nautical Twilight 5:05 AM MDT 9:31 PM MDT
Astronomical Twilight 4:19 AM MDT 10:18 PM MDT
Moon 1:35 PM MDT (4/19) 3:08 AM MDT (4/19)
Length of Visible Light 15h 03m
Length of Day
13h 56m
Waxing Gibbous, 62% of the Moon is Illuminated
Apr 19
Waxing Gibbous
Apr 25
Full
May 2
Last Quarter
May 9
New
May 17
First Quarter

Hourly Weather History & Observations

Time (MDT) Temp. Windchill Dew Point Humidity Pressure Visibility Wind Dir Wind Speed Gust Speed Precip Events Conditions
12:53 AM 28.0 °F - 24.1 °F 85% 30.09 in 10.0 mi Calm Calm - N/A   Scattered Clouds
1:53 AM 30.9 °F 26.2 °F 25.0 °F 79% 30.08 in 10.0 mi ENE 4.6 mph - N/A   Clear
2:53 AM 30.9 °F - 27.0 °F 85% 30.06 in 10.0 mi Calm Calm - N/A   Overcast
3:53 AM 33.1 °F 26.9 °F 27.0 °F 78% 30.03 in 10.0 mi ENE 6.9 mph - N/A   Overcast
4:53 AM 33.1 °F 26.9 °F 27.0 °F 78% 30.02 in 10.0 mi ENE 6.9 mph - N/A   Overcast
5:53 AM 32.0 °F 26.4 °F 27.0 °F 82% 30.01 in 10.0 mi ENE 5.8 mph - N/A   Overcast
6:53 AM 32.0 °F 28.7 °F 28.0 °F 85% 30.00 in 10.0 mi SE 3.5 mph - N/A   Overcast
7:53 AM 35.1 °F 27.4 °F 30.0 °F 82% 29.98 in 10.0 mi East 10.4 mph - N/A   Overcast
8:53 AM 39.0 °F 33.4 °F 30.9 °F 73% 29.96 in 10.0 mi ENE 8.1 mph - N/A   Overcast
9:53 AM 42.1 °F 37.7 °F 30.0 °F 62% 29.95 in 10.0 mi ENE 6.9 mph - N/A   Overcast
10:53 AM 44.1 °F 39.5 °F 30.9 °F 60% 29.92 in 10.0 mi ENE 8.1 mph - N/A   Overcast
11:53 AM 46.0 °F 40.6 °F 33.1 °F 61% 29.91 in 10.0 mi ENE 11.5 mph - N/A   Overcast
12:53 PM 46.9 °F - 33.1 °F 59% 29.89 in 10.0 mi NE 6.9 mph - N/A   Overcast
1:53 PM 44.6 °F 43.1 °F 33.8 °F 66% 29.83 in 10.0 mi WNW 3.5 mph - N/A Rain Light Rain
2:53 PM 46.9 °F - 36.0 °F 66% 29.85 in 10.0 mi Variable 3.5 mph - 0.01 in   Overcast
3:53 PM 48.0 °F - 36.0 °F 63% 29.81 in 10.0 mi East 10.4 mph - N/A   Overcast
4:53 PM 46.9 °F - 37.0 °F 68% 29.81 in 10.0 mi East 13.8 mph - 0.00 in Rain Light Rain
5:53 PM 46.9 °F - 37.9 °F 71% 29.79 in 10.0 mi East 15.0 mph - 0.00 in   Overcast
6:53 PM 46.0 °F 40.2 °F 37.0 °F 71% 29.78 in 10.0 mi East 12.7 mph - N/A   Overcast
7:53 PM 46.0 °F 41.9 °F 37.9 °F 73% 29.76 in 10.0 mi ENE 8.1 mph - N/A   Overcast
8:53 PM 43.0 °F 37.7 °F 37.0 °F 80% 29.78 in 10.0 mi NE 9.2 mph - N/A   Mostly Cloudy
9:53 PM 41.0 °F 33.9 °F 37.0 °F 86% 29.79 in 10.0 mi ENE 12.7 mph - N/A   Overcast
10:53 PM 37.9 °F - 35.1 °F 89% 29.80 in 10.0 mi Calm Calm - N/A   Scattered Clouds
11:53 PM 37.0 °F 33.3 °F 36.0 °F 96% 29.81 in 10.0 mi West 4.6 mph - N/A   Overcast